Total_Precipitation_Accumulation
0.03 0.02 0.02 0.02 0.02 0.02 0.01 0.02 0.02 0.01 0.00 0.00 0.00 0.00 0.00 0.00 0.00 0.00 0.00 0.00 0.00 0.00 0.00 0.00 0.00 0.00 0.00 0.00 0.00 0.00 0.00 0.00 0.00 0.00 0.00 0.00 0.00 0.00 0.00 0.00 0.00 0.00 0.00 0.00 0.00 0.00 0.00
0.03 0.04 0.04 0.03 0.02 0.02 0.02 0.02 0.02 0.01 0.01 0.00 0.00 0.00 0.00 0.00 0.00 0.00 0.00 0.00 0.00 0.00 0.00 0.00 0.00 0.00 0.00 0.00 0.00 0.00 0.00 0.00 0.00 0.00 0.00 0.00 0.00 0.00 0.00 0.00 0.00 0.00 0.00 0.00 0.00 0.00 0.00
0.03 0.03 0.04 0.04 0.04 0.03 0.02 0.02 0.01 0.01 0.01 0.01 0.01 0.00 0.00 0.00 0.00 0.00 0.00 0.00 0.00 0.00 0.00 0.00 0.00 0.01 0.00 0.00 0.00 0.00 0.00 0.00 0.00 0.00 0.00 0.00 0.00 0.00 0.00 0.00 0.00 0.00 0.00 0.00 0.03 0.00 0.00
0.04 0.04 0.04 0.04 0.05 0.04 0.02 0.02 0.01 0.01 0.02 0.01 0.01 0.01 0.00 0.00 0.00 0.00 0.00 0.00 0.00 0.00 0.00 0.00 0.00 0.01 0.00 0.00 0.00 0.00 0.00 0.00 0.00 0.00 0.00 0.00 0.00 0.00 0.00 0.00 0.00 0.00 0.00 0.01 0.15 0.02 0.00
0.04 0.03 0.03 0.04 0.03 0.03 0.03 0.02 0.02 0.02 0.01 0.01 0.01 0.01 0.00 0.00 0.00 0.00 0.00 0.00 0.00 0.00 0.00 0.00 0.00 0.00 0.00 0.00 0.00 0.00 0.00 0.00 0.00 0.00 0.00 0.00 0.00 0.00 0.00 0.00 0.00 0.00 0.00 0.00 0.01 0.01 0.01
0.03 0.04 0.03 0.04 0.03 0.03 0.03 0.03 0.02 0.02 0.02 0.02 0.01 0.01 0.00 0.00 0.00 0.00 0.00 0.00 0.00 0.00 0.00 0.00 0.01 0.00 0.00 0.00 0.00 0.00 0.00 0.00 0.00 0.00 0.00 0.00 0.00 0.00 0.00 0.00 0.00 0.00 0.00 0.00 0.01 0.01 0.00
0.03 0.04 0.04 0.03 0.03 0.02 0.03 0.03 0.04 0.03 0.03 0.03 0.02 0.02 0.00 0.00 0.00 0.00 0.00 0.00 0.00 0.00 0.00 0.00 0.00 0.00 0.00 0.00 0.00 0.00 0.00 0.00 0.00 0.00 0.00 0.00 0.00 0.00 0.00 0.00 0.00 0.00 0.00 0.00 0.00 0.00 0.00
0.04 0.04 0.03 0.03 0.03 0.03 0.04 0.05 0.04 0.04 0.03 0.03 0.02 0.01 0.01 0.01 0.01 0.00 0.00 0.00 0.00 0.00 0.00 0.00 0.00 0.00 0.00 0.00 0.00 0.00 0.00 0.00 0.00 0.00 0.00 0.00 0.00 0.00 0.00 0.00 0.00 0.00 0.00 0.00 0.00 0.00 0.00
0.04 0.04 0.03 0.03 0.03 0.03 0.03 0.04 0.04 0.04 0.04 0.03 0.02 0.02 0.01 0.01 0.00 0.00 0.00 0.00 0.00 0.00 0.00 0.00 0.00 0.00 0.00 0.00 0.00 0.00 0.00 0.00 0.00 0.00 0.00 0.00 0.00 0.00 0.00 0.00 0.00 0.00 0.00 0.00 0.00 0.00 0.00
0.05 0.06 0.04 0.04 0.04 0.03 0.03 0.03 0.03 0.02 0.02 0.02 0.01 0.01 0.01 0.01 0.00 0.00 0.00 0.00 0.00 0.00 0.01 0.00 0.00 0.00 0.00 0.00 0.00 0.00 0.00 0.00 0.00 0.00 0.00 0.00 0.00 0.00 0.00 0.00 0.00 0.00 0.00 0.00 0.00 0.00 0.00
0.06 0.06 0.07 0.07 0.07 0.05 0.03 0.03 0.03 0.02 0.01 0.03 0.03 0.03 0.03 0.03 0.00 0.00 0.00 0.00 0.00 0.01 0.00 0.00 0.00 0.00 0.00 0.00 0.00 0.00 0.00 0.00 0.00 0.00 0.00 0.00 0.00 0.00 0.00 0.00 0.00 0.00 0.00 0.00 0.00 0.00 0.00
0.05 0.05 0.06 0.06 0.07 0.05 0.04 0.04 0.04 0.03 0.02 0.03 0.05 0.06 0.10 0.05 0.01 0.00 0.00 0.01 0.03 0.02 0.00 0.00 0.00 0.00 0.00 0.00 0.00 0.00 0.00 0.00 0.00 0.00 0.00 0.00 0.00 0.00 0.00 0.00 0.00 0.00 0.00 0.00 0.00 0.00 0.00
0.05 0.04 0.04 0.05 0.06 0.07 0.07 0.06 0.05 0.04 0.04 0.02 0.03 0.08 0.15 0.04 0.01 0.00 0.01 0.10 0.10 0.01 0.00 0.00 0.00 0.00 0.00 0.00 0.00 0.00 0.00 0.00 0.00 0.00 0.01 0.00 0.00 0.00 0.00 0.00 0.00 0.00 0.00 0.01 0.06 0.01 0.00
0.08 0.07 0.06 0.06 0.06 0.07 0.07 0.07 0.06 0.06 0.07 0.07 0.08 0.13 0.11 0.05 0.01 0.02 0.08 0.18 0.05 0.00 0.00 0.00 0.00 0.00 0.00 0.00 0.00 0.00 0.00 0.00 0.00 0.00 0.00 0.01 0.01 0.00 0.00 0.00 0.00 0.00 0.00 0.02 0.10 0.08 0.05
0.08 0.07 0.06 0.06 0.06 0.07 0.08 0.08 0.07 0.08 0.09 0.10 0.21 0.19 0.16 0.05 0.02 0.07 0.28 0.35 0.02 0.00 0.00 0.00 0.00 0.00 0.00 0.00 0.00 0.00 0.00 0.00 0.00 0.00 0.00 0.00 0.00 0.00 0.00 0.00 0.00 0.00 0.00 0.00 0.01 0.02 0.04
0.09 0.10 0.09 0.07 0.06 0.06 0.08 0.09 0.10 0.11 0.16 0.26 0.33 0.27 0.09 0.04 0.11 0.25 0.46 0.21 0.00 0.00 0.00 0.00 0.00 0.00 0.00 0.00 0.00 0.00 0.00 0.00 0.00 0.00 0.00 0.00 0.00 0.00 0.00 0.00 0.00 0.00 0.00 0.00 0.00 0.07 0.06
0.09 0.08 0.09 0.09 0.08 0.08 0.09 0.12 0.13 0.13 0.17 0.42 0.72 0.65 0.16 0.07 0.39 0.57 0.45 0.06 0.00 0.00 0.00 0.00 0.00 0.00 0.00 0.00 0.00 0.01 0.00 0.00 0.00 0.00 0.00 0.00 0.00 0.00 0.00 0.00 0.00 0.00 0.00 0.00 0.00 0.00 0.05
0.12 0.14 0.14 0.11 0.07 0.07 0.09 0.13 0.16 0.16 0.28 0.98 1.44 0.94 0.19 0.17 0.57 0.49 0.17 0.01 0.00 0.00 0.00 0.00 0.00 0.00 0.00 0.00 0.00 0.01 0.00 0.00 0.00 0.00 0.00 0.00 0.00 0.00 0.00 0.00 0.00 0.00 0.00 0.00 0.00 0.00 0.01
0.08 0.08 0.08 0.12 0.18 0.16 0.13 0.16 0.21 0.22 0.48 1.33 1.82 0.82 0.54 0.21 0.32 0.17 0.09 0.01 0.00 0.00 0.00 0.00 0.00 0.00 0.00 0.00 0.00 0.00 0.00 0.00 0.00 0.00 0.00 0.00 0.00 0.00 0.00 0.00 0.00 0.00 0.00 0.00 0.00 0.00 0.01
0.05 0.05 0.05 0.06 0.09 0.17 0.28 0.27 0.28 0.35 0.61 1.71 2.15 1.18 1.15 1.04 0.17 0.01 0.04 0.02 0.00 0.00 0.00 0.00 0.00 0.00 0.00 0.00 0.00 0.00 0.00 0.00 0.00 0.00 0.00 0.00 0.00 0.00 0.00 0.00 0.00 0.00 0.00 0.00 0.00 0.01 0.00
0.07 0.07 0.05 0.05 0.06 0.08 0.16 0.36 0.43 0.46 0.77 2.49 2.91 1.03 0.47 0.63 0.31 0.07 0.02 0.01 0.00 0.00 0.00 0.00 0.00 0.01 0.00 0.00 0.01 0.00 0.01 0.02 0.00 0.00 0.00 0.02 0.01 0.00 0.00 0.00 0.00 0.00 0.00 0.00 0.00 0.00 0.01
0.12 0.11 0.10 0.09 0.09 0.08 0.09 0.16 0.48 0.77 1.14 3.11 2.90 0.49 0.15 0.09 0.08 0.12 0.10 0.05 0.00 0.00 0.00 0.00 0.00 0.00 0.00 0.00 0.01 0.02 0.03 0.07 0.05 0.01 0.01 0.02 0.01 0.00 0.00 0.00 0.00 0.00 0.00 0.00 0.00 0.00 0.00
0.18 0.18 0.17 0.15 0.13 0.12 0.11 0.11 0.17 0.78 1.83 3.78 2.35 0.23 0.19 0.16 0.09 0.28 0.23 0.02 0.00 0.00 0.00 0.00 0.00 0.00 0.00 0.00 0.02 0.12 0.07 0.05 0.11 0.12 0.06 0.07 0.08 0.05 0.02 0.00 0.00 0.01 0.00 0.00 0.00 0.00 0.00
0.16 0.20 0.24 0.27 0.25 0.20 0.18 0.15 0.17 0.44 1.72 2.63 1.49 0.18 0.41 0.51 0.19 0.08 0.03 0.01 0.01 0.00 0.00 0.00 0.00 0.00 0.01 0.01 0.07 0.21 0.12 0.05 0.14 0.11 0.18 0.18 0.13 0.15 0.08 0.03 0.11 0.04 0.00 0.00 0.00 0.00 0.00
0.13 0.15 0.18 0.24 0.32 0.33 0.27 0.23 0.23 0.41 0.91 1.99 1.33 0.35 0.19 0.28 0.12 0.06 0.03 0.02 0.01 0.00 0.00 0.00 0.00 0.00 0.00 0.04 0.10 0.18 0.17 0.12 0.11 0.22 0.21 0.17 0.21 0.33 0.16 0.08 0.05 0.00 0.00 0.00 0.00 0.00 0.00
0.16 0.15 0.15 0.17 0.21 0.28 0.37 0.36 0.33 0.43 0.70 1.28 1.47 0.78 0.46 0.32 0.16 0.02 0.04 0.05 0.03 0.02 0.04 0.01 0.04 0.02 0.02 0.10 0.17 0.15 0.15 0.08 0.09 0.09 0.22 0.36 0.25 0.29 0.31 0.19 0.07 0.00 0.00 0.00 0.00 0.00 0.00
0.17 0.16 0.16 0.17 0.19 0.18 0.27 0.41 0.46 0.47 0.65 0.89 1.17 0.74 1.25 0.96 0.15 0.04 0.08 0.06 0.02 0.03 0.10 0.03 0.08 0.08 0.10 0.18 0.14 0.05 0.03 0.03 0.04 0.07 0.09 0.26 0.39 0.34 0.31 0.25 0.04 0.00 0.00 0.01 0.02 0.01 0.00
0.20 0.18 0.18 0.20 0.24 0.20 0.18 0.30 0.44 0.55 0.72 0.94 0.92 0.42 0.96 1.17 0.29 0.09 0.12 0.11 0.04 0.06 0.12 0.06 0.24 0.21 0.27 0.19 0.08 0.03 0.01 0.01 0.01 0.01 0.03 0.08 0.20 0.29 0.33 0.30 0.11 0.02 0.09 0.13 0.04 0.01 0.00
0.18 0.18 0.19 0.23 0.24 0.25 0.21 0.23 0.35 0.62 0.84 1.02 1.12 0.45 0.57 0.96 0.61 0.19 0.13 0.17 0.07 0.04 0.09 0.11 0.07 0.03 0.06 0.12 0.05 0.02 0.02 0.01 0.00 0.00 0.00 0.03 0.03 0.06 0.08 0.05 0.02 0.04 0.08 0.09 0.08 0.06 0.04